Location: Melbourne
(37.8170°S, 144.9670°E)
Time: 00:20:46
(UTC+11:00)

Vanguard 1 Rocket - Visible Passes

Search period start: 24 November 2014 00:00
Search period end: 04 December 2014 00:00
Orbit: 654 x 4226 km, 34.3° (Epoch: 19 November)

Date Brightness Start Highest point End Pass type
(mag) Time Alt. Az. Time Alt. Az. Time Alt. Az.
24 Nov 10.8 02:40:10 16° NNE 02:42:47 17° NNE 02:50:06 10° ENE visible
24 Nov 9.5 04:57:29 10° NW 05:10:52 39° NNE 05:18:17 10° E visible
25 Nov 10.0 03:50:18 19° NNW 03:59:03 31° NNE 04:07:37 10° E visible
26 Nov 10.5 02:43:05 22° NNE 02:46:45 24° NNE 02:56:02 10° ENE visible
26 Nov 9.3 05:00:22 11° NW 05:14:50 48° NNE 05:22:38 10° E visible
27 Nov 10.9 01:35:47 16° NE 01:35:47 16° NE 01:42:32 10° ENE visible
27 Nov 9.8 03:53:04 22° NNW 04:02:59 40° NNE 04:12:11 10° E visible
28 Nov 10.3 02:45:41 28° N 02:50:38 31° NNE 03:01:05 10° E visible
28 Nov 9.2 05:02:58 10° WNW 05:18:47 57° NNE 05:26:51 10° E visible
29 Nov 10.7 01:38:13 23° NE 01:38:13 23° NE 01:48:47 10° E visible
29 Nov 9.7 03:55:28 23° NW 04:06:52 48° NNE 04:16:31 10° E visible
30 Nov 11.1 00:30:40 13° ENE 00:30:40 13° ENE 00:33:49 10° ENE visible
30 Nov 10.1 02:47:55 32° N 02:54:26 39° NNE 03:05:42 10° E visible
30 Nov 9.1 05:06:04 10° WNW 05:22:41 65° NNE 05:30:59 10° E visible
01 Dec 10.5 01:40:15 30° NNE 01:41:33 30° NNE 01:53:59 10° E visible
01 Dec 9.6 03:57:28 22° NW 04:10:42 57° NNE 04:20:44 10° E visible
02 Dec 10.9 00:32:28 20° NE 00:32:28 20° NE 00:40:40 10° E visible
02 Dec 10.0 02:49:41 34° NNW 02:58:10 48° NNE 03:10:03 10° E visible
02 Dec 9.1 05:09:20 10° WNW 05:26:35 71° N 05:35:06 10° E visible
03 Dec 10.4 01:41:44 36° NNE 01:45:09 38° NNE 01:58:41 10° E visible
03 Dec 9.5 03:58:56 19° WNW 04:14:30 64° NNE 04:24:51 10° E visible
